Delaware, OH

3:00 PM EST on November 20, 2017 (GMT -0500)
Delaware Municipal

Weather History for KDLZ - November, 2013

Change the Weather History Date:

Saturday, November 23, 2013

  Actual Average Record
Temperature  
Mean Temperature 26 °F -  
Max Temperature 33 °F 46 °F 66 °F (1963)
Min Temperature 19 °F 27 °F 10 °F (1937)
Degree Days  
Heating Degree Days 39    
Moisture  
Dew Point 21 °F    
Average Humidity 78    
Maximum Humidity 93    
Minimum Humidity 59    
Precipitation  
Precipitation 0.00 in - - ()
Sea Level Pressure  
Sea Level Pressure 30.36 in    
Wind  
Wind Speed 8 mph (NW)    
Max Wind Speed 22 mph    
Max Gust Speed 28 mph    
Visibility 10 miles    
Events Snow    
Averages and records for this station are not official NWS values.
T = Trace of Precipitation, MM = Missing Value Source: NWS Daily Summary

Daily Weather History Graph

Daily Weather History Graph

Search for Another Location

Airport or City:

Trip Planner

Search our weather history database for the weather conditions in past years. The results will help you decide how hot, cold, wet, or windy it might be!

Date:

Astronomy

Nov. 23, 2013 Rise Set
Actual Time 7:27 AM EST 5:09 PM EST
Civil Twilight 6:57 AM EST 5:39 PM EST
Nautical Twilight 6:24 AM EST 6:12 PM EST
Astronomical Twilight 5:52 AM EST 6:45 PM EST
Moon 10:37 PM EST (11/23) 11:43 AM EST (11/23)
Length of Visible Light 10h 41m
Length of Day
9h 42m
Waning Gibbous, 70% of the Moon is Illuminated
Nov 23
Waning Gibbous
Nov 25
Last Quarter
Dec 2
New
Dec 9
First Quarter
Dec 17
Full

Hourly Weather History & Observations

Time (EST) Temp. Windchill Dew Point Humidity Pressure Visibility Wind Dir Wind Speed Gust Speed Precip Events Conditions
12:16 AM 32.0 °F 28.7 °F 28.4 °F 87% 30.34 in 10.0 mi NNW 3.5 mph - N/A   Clear
12:37 AM 32.0 °F 26.4 °F 28.4 °F 87% 30.34 in 10.0 mi NW 5.8 mph - N/A   Scattered Clouds
12:56 AM 32.0 °F 27.5 °F 28.4 °F 87% 30.35 in 10.0 mi NNW 4.6 mph - N/A   Mostly Cloudy
1:16 AM 32.0 °F 27.5 °F 28.4 °F 87% 30.35 in 10.0 mi NNW 4.6 mph - N/A   Overcast
1:37 AM 32.0 °F 27.5 °F 26.6 °F 80% 30.35 in 10.0 mi NNW 4.6 mph - N/A   Overcast
1:56 AM 32.0 °F 27.5 °F 26.6 °F 80% 30.35 in 10.0 mi NNW 4.6 mph - N/A   Overcast
2:16 AM 30.2 °F 25.4 °F 26.6 °F 86% 30.35 in 10.0 mi NW 4.6 mph - N/A   Overcast
2:37 AM 28.4 °F 24.6 °F 26.6 °F 93% 30.34 in 10.0 mi NW 3.5 mph - N/A   Scattered Clouds
2:56 AM 28.4 °F 24.6 °F 26.6 °F 93% 30.34 in 10.0 mi NW 3.5 mph - N/A   Clear
3:16 AM 28.4 °F 24.6 °F 26.6 °F 93% 30.34 in 10.0 mi NW 3.5 mph - N/A   Clear
3:36 AM 28.4 °F 23.3 °F 26.6 °F 93% 30.33 in 10.0 mi WNW 4.6 mph - N/A   Clear
3:56 AM 28.4 °F 21.2 °F 26.6 °F 93% 30.33 in 10.0 mi NW 6.9 mph - N/A   Clear
4:17 AM 28.4 °F 22.2 °F 26.6 °F 93% 30.33 in 10.0 mi NW 5.8 mph - N/A   Clear
4:36 AM 28.4 °F 22.2 °F 26.6 °F 93% 30.33 in 10.0 mi NW 5.8 mph - N/A   Clear
4:56 AM 28.4 °F 23.3 °F 26.6 °F 93% 30.33 in 10.0 mi WNW 4.6 mph - N/A   Clear
5:17 AM 26.6 °F 21.2 °F 24.8 °F 93% 30.33 in 10.0 mi WNW 4.6 mph - N/A   Clear
5:36 AM 26.6 °F 21.2 °F 24.8 °F 93% 30.33 in 10.0 mi West 4.6 mph - N/A   Clear
5:56 AM 26.6 °F 21.2 °F 24.8 °F 93% 30.33 in 10.0 mi West 4.6 mph - N/A   Clear
6:17 AM 26.6 °F 21.2 °F 24.8 °F 93% 30.33 in 10.0 mi West 4.6 mph - N/A   Scattered Clouds
6:36 AM 26.6 °F - 24.8 °F 93% 30.33 in 10.0 mi Calm Calm - N/A   Scattered Clouds
6:56 AM 26.6 °F - 23.0 °F 86% 30.33 in 10.0 mi Calm Calm - N/A   Clear
7:17 AM 26.6 °F 22.6 °F 24.8 °F 93% 30.33 in 10.0 mi West 3.5 mph - N/A   Clear
7:36 AM 26.6 °F 21.2 °F 23.0 °F 86% 30.33 in 10.0 mi West 4.6 mph - N/A   Clear
7:56 AM 26.6 °F - 24.8 °F 93% 30.34 in 10.0 mi Calm Calm - N/A   Clear
8:17 AM 26.6 °F 21.2 °F 24.8 °F 93% 30.33 in 10.0 mi WSW 4.6 mph - N/A   Clear
8:36 AM 28.4 °F 24.6 °F 24.8 °F 86% 30.33 in 10.0 mi West 3.5 mph - N/A   Clear
8:56 AM 28.4 °F 23.3 °F 26.6 °F 93% 30.33 in 10.0 mi West 4.6 mph - N/A   Clear
9:17 AM 28.4 °F 21.2 °F 26.6 °F 93% 30.32 in 7.0 mi WSW 6.9 mph - N/A   Clear
9:36 AM 30.2 °F 23.4 °F 26.6 °F 86% 30.32 in 7.0 mi WSW 6.9 mph - N/A   Clear
9:56 AM 30.2 °F 24.3 °F 28.4 °F 93% 30.33 in 7.0 mi West 5.8 mph - N/A   Clear
10:17 AM 30.2 °F 22.6 °F 26.6 °F 86% 30.33 in 10.0 mi West 8.1 mph - N/A   Scattered Clouds
10:36 AM 32.0 °F 24.8 °F 26.6 °F 80% 30.33 in 10.0 mi NW 8.1 mph - N/A   Mostly Cloudy
10:56 AM 32.0 °F 24.2 °F 24.8 °F 75% 30.32 in 10.0 mi WNW 9.2 mph - N/A   Scattered Clouds
11:17 AM 32.0 °F 23.0 °F 24.8 °F 75% 30.31 in 10.0 mi WNW 11.5 mph 18.4 mph N/A   Scattered Clouds
11:36 AM 32.0 °F 20.8 °F 23.0 °F 69% 30.31 in 10.0 mi WNW 17.3 mph 25.3 mph N/A   Scattered Clouds
11:56 AM 32.0 °F 21.2 °F 23.0 °F 69% 30.31 in 10.0 mi WNW 16.1 mph 24.2 mph N/A   Scattered Clouds
12:17 PM 32.0 °F 20.8 °F 23.0 °F 69% 30.30 in 10.0 mi WNW 17.3 mph - N/A   Mostly Cloudy
12:36 PM 32.0 °F 21.6 °F 23.0 °F 69% 30.29 in 10.0 mi WNW 15.0 mph - N/A   Scattered Clouds
12:56 PM 33.8 °F 23.2 °F 23.0 °F 65% 30.28 in 10.0 mi WNW 17.3 mph 21.9 mph N/A   Mostly Cloudy
1:17 PM 33.8 °F 22.8 °F 21.2 °F 60% 30.28 in 10.0 mi NW 18.4 mph 27.6 mph N/A   Overcast
1:36 PM 32.0 °F 20.5 °F 21.2 °F 64% 30.28 in 10.0 mi NW 18.4 mph 24.2 mph N/A   Overcast
1:56 PM 32.0 °F 22.5 °F 24.8 °F 75% 30.28 in 5.0 mi NW 12.7 mph 20.7 mph N/A Snow Light Snow
2:17 PM 32.0 °F 19.5 °F 23.0 °F 69% 30.28 in 10.0 mi WNW 21.9 mph 27.6 mph N/A   Overcast
2:36 PM 30.2 °F 20.8 °F 23.0 °F 75% 30.29 in 7.0 mi WNW 11.5 mph 21.9 mph N/A Snow Light Snow
2:56 PM 30.2 °F 20.2 °F 24.8 °F 80% 30.30 in 5.0 mi NW 12.7 mph - N/A Snow Light Snow
3:16 PM 30.2 °F 18.9 °F 21.2 °F 69% 30.31 in 10.0 mi NNW 16.1 mph 23.0 mph N/A   Overcast
3:36 PM 28.4 °F 18.0 °F 23.0 °F 80% 30.32 in 4.0 mi NNW 12.7 mph 23.0 mph N/A Snow Light Snow
3:57 PM 28.4 °F 17.5 °F 21.2 °F 74% 30.33 in 10.0 mi NW 13.8 mph 19.6 mph N/A   Overcast
4:16 PM 28.4 °F 18.5 °F 21.2 °F 74% 30.34 in 10.0 mi NW 11.5 mph 19.6 mph N/A   Overcast
4:36 PM 28.4 °F 18.5 °F 21.2 °F 74% 30.35 in 7.0 mi NNW 11.5 mph 17.3 mph N/A Snow Light Snow
4:57 PM 26.6 °F 15.2 °F 21.2 °F 80% 30.36 in 10.0 mi NW 13.8 mph - N/A Snow Light Snow
5:16 PM 26.6 °F 14.7 °F 19.4 °F 74% 30.36 in 7.0 mi NW 15.0 mph 19.6 mph N/A Snow Light Snow
5:36 PM 26.6 °F 15.7 °F 17.6 °F 69% 30.37 in 10.0 mi NW 12.7 mph 27.6 mph N/A   Overcast
5:57 PM 26.6 °F 16.2 °F 14.0 °F 59% 30.38 in 10.0 mi NNW 11.5 mph - N/A   Mostly Cloudy
6:16 PM 26.6 °F 15.7 °F 14.0 °F 59% 30.39 in 10.0 mi NNW 12.7 mph 21.9 mph N/A   Mostly Cloudy
6:36 PM 26.6 °F 16.2 °F 14.0 °F 59% 30.39 in 10.0 mi NNW 11.5 mph 20.7 mph N/A   Overcast
6:57 PM 26.6 °F 14.3 °F 14.0 °F 59% 30.40 in 10.0 mi NNW 16.1 mph 21.9 mph N/A   Overcast
7:16 PM 24.8 °F 13.4 °F 17.6 °F 74% 30.42 in 7.0 mi NNW 12.7 mph 16.1 mph N/A Snow Light Snow
7:36 PM 24.8 °F 12.4 °F 14.0 °F 64% 30.42 in 10.0 mi NW 15.0 mph 20.7 mph N/A   Overcast
7:57 PM 23.0 °F 10.1 °F 12.2 °F 63% 30.42 in 10.0 mi NNW 15.0 mph - N/A   Mostly Cloudy
8:16 PM 23.0 °F 10.1 °F 12.2 °F 63% 30.43 in 10.0 mi NNW 15.0 mph 23.0 mph N/A   Mostly Cloudy
8:36 PM 23.0 °F 11.7 °F 10.4 °F 59% 30.44 in 10.0 mi NW 11.5 mph - N/A   Scattered Clouds
8:57 PM 23.0 °F 11.1 °F 10.4 °F 59% 30.45 in 10.0 mi NW 12.7 mph 20.7 mph N/A   Clear
9:16 PM 21.2 °F 9.5 °F 12.2 °F 68% 30.45 in 10.0 mi NW 11.5 mph 17.3 mph N/A   Scattered Clouds
9:36 PM 21.2 °F 10.1 °F 10.4 °F 63% 30.46 in 10.0 mi NW 10.4 mph 13.8 mph N/A   Clear
9:57 PM 21.2 °F 8.3 °F 10.4 °F 63% 30.47 in 10.0 mi NNW 13.8 mph 19.6 mph N/A   Clear
10:16 PM 21.2 °F 9.5 °F 10.4 °F 63% 30.47 in 10.0 mi NNW 11.5 mph 16.1 mph N/A   Clear
10:37 PM - - - N/A% - - North - - N/A   Unknown
10:56 PM 19.4 °F 6.6 °F 8.6 °F 63% 30.48 in 10.0 mi NW 12.7 mph 18.4 mph N/A   Unknown
11:16 PM 19.4 °F 7.9 °F 8.6 °F 63% 30.49 in 10.0 mi NW 10.4 mph - N/A   Scattered Clouds
11:37 PM 19.4 °F 6.0 °F 10.4 °F 68% 30.49 in 10.0 mi NNW 13.8 mph - N/A   Scattered Clouds
11:56 PM 19.4 °F 7.2 °F 8.6 °F 63% 30.49 in 10.0 mi NNW 11.5 mph - N/A   Clear